Location: Champignolles
(47.0543°N, 4.5663°E)
Time: 09:34:00
(UTC+00:00)

ISS - Pass Details

Date: 02 December 2021
Orbit: 413 x 422 km, 51.6° (Epoch: 27 January)

Event Time Altitude Azimuth Distance (km) Brightness Sun altitude
Rises 16:43:08 0° 288° (WNW) 2,389 0.9 -8.2°
Reaches altitude 10° 16:45:21 10° 297° (WNW) 1,520 -0.3 -8.6°
Maximum altitude 16:48:35 38° 7° (N) 661 -3.0 -9.1°
Enters shadow 16:51:15 14° 74° (ENE) 1,312 -1.9 -9.5°
